Flag for Switzerland Weather past 2 weeks in Kreuzlingen, Thurgau, Switzerland

Now
59 °F

Light rain. Passing clouds.


Feels Like: 59 °F
Forecast: 51 / 74 °F
Wind: 2 mph from Southwest

Location: Konstanz

Current Time: May 4, 2015 at 4:08:37 AM

Latest Report: May 4, 2015 at 3:00 AM


Visibility: 16 mi

Pressure: 29.86 "Hg

Humidity: 94%

Dew point: 58 °F

Location of KreuzlingenLocation

Historic Weather in Kreuzlingen — Graph

°F

Kreuzlingen temperature yesterday

Maximum temperature yesterday: 62 °F (at 6:00 PM)
Minimum temperature yesterday: 51 °F (at 4:00 AM)
Average temperature yesterday: 56 °F

Past Weeks' High & Low Weather Summary

 TemperatureHumidityPressure
High74 °F (Apr 22, 5:00 PM)100% (May 3, 2:00 AM)30.38 "Hg (May 3, 2:00 AM)
Low38 °F (Apr 29, 4:00 AM)18% (Apr 22, 7:00 PM)29.41 "Hg (Apr 27, 6:00 PM)
Average54 °F68%29.97 "Hg
* Reported Apr 19 2:00 AM — May 4 2:00 AM, Kreuzlingen, Weather by CustomWeather, © 2015

Note: Actual official high and low records may vary slightly from our data, if they occured in-between our weather recording intervals... More about our weather records

Advertising

Kreuzlingen weather history for previous 24 hours

 ConditionsComfort  
Time TempWeatherWind HumidityBarometerVisibility
2:00 AM
Mon, May 4
60 °FLight rain. Passing clouds.3 mph94%29.85 "Hg34 mi
1:00 AM60 °FOvercast.3 mph96%29.83 "Hg43 mi
12:00 AM58 °FLight rain. Passing clouds.1 mph99%29.83 "Hg6 mi
11:00 PM
Sun, May 3
59 °FOvercast.2 mph95%29.81 "Hg28 mi
10:00 PM59 °FOvercast.1 mph97%29.80 "Hg17 mi
9:00 PM60 °FOvercast.1 mph95%29.78 "Hg37 mi
8:00 PM61 °FOvercast.1 mph95%29.76 "Hg37 mi
7:00 PM60 °FOvercast.1 mph91%29.75 "Hg22 mi
6:00 PM62 °FOvercast.2 mph88%29.75 "Hg22 mi
5:00 PM60 °FOvercast.3 mph91%29.76 "Hg17 mi
4:00 PM58 °FLight rain. Overcast.3 mph95%29.80 "Hg17 mi
3:00 PM58 °FLight rain. Overcast.3 mph94%29.81 "Hg6 mi
2:00 PM58 °FLight rain. Low clouds.1 mph95%29.82 "Hg6 mi
1:00 PM57 °FLight rain. Low clouds.1 mph98%29.81 "Hg12 mi
12:00 PM57 °FLight rain. Low clouds.1 mph98%29.80 "Hg16 mi
11:00 AM56 °FLight rain. Low clouds.2 mph99%29.81 "Hg3 mi
10:00 AM53 °FLight rain. Low clouds.2 mph100%29.81 "Hg11 mi
9:00 AM55 °FLight rain. Low clouds.1 mph96%29.80 "Hg9 mi
8:00 AM52 °FLight rain. Low clouds.2 mph100%29.80 "Hg12 mi
7:00 AM52 °FLight rain. Low clouds.1 mph99%29.80 "Hg5 mi
6:00 AM53 °FLight rain. Low clouds.2 mph96%29.79 "Hg6 mi
5:00 AM51 °FLight rain. Overcast.2 mph100%29.79 "Hg7 mi
4:00 AM51 °FRain. Low clouds.1 mph100%29.81 "Hg3 mi
Weather by CustomWeather, © 2015

See weather overviewHow to use our weather pages